User: anonymous   Login
Location: Unspecified
(0.0000°N, 0.0000°E)
Time: 18:30:44
(UTC+00:00)
Language:

USA 225 - Orbit

View from above orbital plane
View from above orbital plane
View from above satellite
View from above satellite

Ground track
Ground track

The orbit data is extracted from the following two-line orbital elements,

1 37364U 11006A   21053.15470665 0.00000000  00000-0  00000-0 0    09
2 37364  90.0926  56.3862 0011972 120.7853 239.2146 13.11774663    03
Epoch (UTC): 22 February 2021 03:42:46
Eccentricity: 0.0011972
inclination: 90.0926°
perigee height: 1207 km
apogee height: 1225 km
right ascension of ascending node: 56.3862°
argument of perigee: 120.7853°
revolutions per day: 13.11774663
mean anomaly at epoch: 239.2146°
orbit number at epoch: 0

The dashed part of the orbit path shows where the satellite is in the earth's shadow,  

DLR